Location: Newark
(47.5833°N, 8.1500°E)
Time: 10:44:04
(UTC+00:00)

Altair - Pass Details

Date: 04 November 2020
Orbit: 1502 x 1682 km, 47.2° (Epoch: 25 November)

Event Time Altitude Azimuth Distance (km) Brightness Sun altitude
Exits shadow 03:07:35 49° 196° (SSW) 1,889 7.7 -32.0°
Maximum altitude 03:09:46 59° 151° (SSE) 1,720 7.7 -31.7°
Drops below altitude 10° 03:18:58 10° 75° (ENE) 3,757 10.4 -30.2°
Sets 03:22:08 0° 72° (ENE) 4,767 11.3 -29.6°
